Vorticity
8 8 8 9 9 8 8 8 8 9 5 6 7 11 7 6 9 9 7 6 7 5 5 6 7 8 10 9 4 11 17 18 18 19 15 16 22 14 15 16 9 11 17 28 33 25 8
7 8 8 8 10 10 9 8 9 6 5 7 9 11 10 6 7 9 7 5 6 5 6 5 7 2 8 13 8 6 11 18 15 18 14 16 21 9 15 14 13 13 12 16 21 26 31
5 6 8 9 9 11 10 8 6 4 3 3 4 9 12 9 6 9 7 6 6 5 6 6 6 4 11 5 6 5 6 16 16 18 14 14 16 13 17 13 10 8 11 11 13 22 23
4 4 6 7 9 9 8 7 6 6 5 5 5 7 8 10 6 7 8 8 6 6 5 6 3 3 5 7 6 5 7 2 27 21 16 14 18 19 16 17 13 13 13 10 14 16 22
2 2 3 3 4 6 9 9 9 8 7 8 10 8 8 10 8 5 9 9 7 6 4 4 5 3 4 8 12 10 8 14 33 12 20 19 17 14 17 17 16 12 11 11 13 14 23
3 2 2 1 2 2 2 3 4 6 8 5 4 5 8 9 10 6 6 8 9 8 5 3 5 5 3 6 11 16 15 17 29 16 20 8 6 4 7 6 12 2 6 16 9 16 15
4 3 2 1 1 1 0 0 0 1 3 4 2 1 -0 7 7 9 6 7 10 11 8 4 4 5 2 9 6 16 18 16 17 23 11 6 10 6 6 8 8 14 18 -1 5 11 15
6 4 4 3 2 2 3 3 2 1 0 -1 1 3 -0 -0 7 6 9 5 8 9 11 9 3 6 4 5 6 15 17 21 17 19 14 2 7 5 11 9 10 13 14 21 12 5 14
13 13 6 5 4 2 1 1 2 3 6 5 3 1 2 2 2 6 6 9 5 8 14 16 6 5 6 8 6 14 13 16 16 23 12 0 1 21 23 20 9 12 15 17 30 8 17
4 12 11 9 10 7 6 3 2 2 1 1 3 3 4 2 4 1 5 9 8 6 10 -4 8 4 5 6 13 17 11 16 17 20 14 6 20 13 19 14 21 19 20 21 4 17 12
3 3 6 14 13 13 9 10 10 4 3 3 2 2 2 2 3 3 1 5 10 7 14 13 9 6 5 6 9 12 9 13 18 20 16 8 14 10 10 16 6 16 17 14 20 12 17
2 5 2 2 7 11 13 15 10 12 9 11 9 2 2 3 1 4 4 3 8 7 7 7 11 8 8 8 11 2 8 9 16 20 18 3 17 9 10 10 15 18 17 18 23 16 7
8 2 4 3 4 1 5 4 14 13 15 12 11 12 12 -0 3 1 3 4 8 8 5 5 9 13 8 9 4 12 5 7 11 11 13 20 13 16 1 41 6 33 12 16 15 11 15
-11 10 3 2 1 5 4 3 -0 1 2 4 14 15 13 18 -1 2 3 4 3 6 7 6 9 13 9 7 12 14 12 6 16 8 20 8 4 15 6 19 28 14 19 3 6 12 12
13 -12 7 8 3 1 4 5 3 3 4 5 0 2 11 12 18 3 2 2 4 5 6 7 7 12 15 9 6 5 19 11 14 13 8 15 13 14 11 9 7 -8 13 2 -2 6 8
5 3 -0 4 7 9 3 0 -0 2 3 4 4 1 3 1 8 13 10 1 3 4 6 8 6 7 14 11 7 13 5 13 12 11 27 18 24 21 12 12 12 10 1 10 15 10 8
9 16 8 -7 7 5 6 8 2 2 2 1 3 2 4 4 1 5 12 9 1 5 9 5 8 5 8 16 8 7 9 11 11 14 -10 1 4 5 24 16 7 5 10 11 9 9 9
14 27 14 2 3 6 5 6 9 7 5 4 -0 4 4 3 1 7 5 12 9 4 3 6 5 7 5 7 15 9 7 6 5 15 10 10 19 16 31 18 22 7 13 7 11 7 7
17 29 33 -0 -1 5 7 7 5 6 9 7 1 3 4 2 5 -0 4 7 12 3 4 8 5 9 5 6 6 14 10 7 5 8 8 6 20 13 -3 3 14 -3 -0 42 18 12 21
20 20 27 8 2 2 3 7 5 5 4 8 3 2 5 2 4 1 4 1 8 13 1 3 10 6 8 5 7 9 15 9 11 5 10 19 16 13 12 9 -4 -4 28 29 16 15 4
16 20 13 40 37 0 4 0 10 9 6 4 5 6 2 5 5 3 1 -2 3 10 9 5 5 1 6 6 8 6 7 12 13 12 6 -0 0 -9 2 3 6 7 7 16 18 15 14
6 9 14 16 15 31 24 5 8 -8 9 4 4 7 9 3 5 2 4 1 -2 3 13 4 5 15 15 6 5 6 8 7 7 13 13 11 13 16 23 17 11 24 19 24 26 24 14
6 7 7 7 14 21 10 29 1 11 14 15 -3 4 4 8 8 5 6 5 3 3 5 9 5 1 -14 7 5 4 7 7 7 7 11 14 14 14 14 15 15 13 14 22 17 26 34
6 6 4 6 4 2 11 27 16 7 -6 5 9 5 11 6 7 5 6 5 5 4 7 10 7 2 11 13 5 4 6 6 7 8 8 6 6 7 11 15 13 10 10 15 25 16 -3
6 7 7 7 8 7 4 5 7 8 4 17 8 20 6 13 8 8 7 2 11 5 1 4 13 4 4 -4 30 5 3 9 6 5 7 8 10 9 11 10 11 15 14 12 10 20 15
7 6 6 5 6 8 8 9 6 7 6 10 11 9 7 3 11 6 6 2 8 3 6 4 10 8 2 9 -4 7 4 6 8 7 5 8 8 7 10 10 11 11 9 9 8 9 9
6 6 7 7 7 6 4 5 9 7 8 7 8 8 7 9 9 11 7 7 4 5 2 6 8 10 5 6 0 32 1 4 6 8 6 5 7 9 8 9 6 9 8 4 8 11 9
7 7 9 13 12 8 8 8 5 6 9 6 8 9 9 11 5 8 9 5 0 4 3 5 9 5 7 4 -2 -1 30 4 4 5 8 5 4 9 10 8 4 7 7 6 4 6 7
7 2 1 5 9 13 12 7 5 9 8 7 8 10 10 9 7 8 11 7 4 6 7 3 5 11 3 5 5 1 14 7 5 4 3 3 4 2 3 5 8 6 5 5 3 2 2
Height
5808 5806 5805 5804 5803 5802 5802 5802 5800 5799 5797 5795 5792 5790 5787 5784 5780 5777 5774 5772 5769 5765 5760 5755 5751 5746 5741 5735 5728 5721 5712 5705 5697 5693 5690 5687 5685 5683 5684 5685 5687 5690 5693 5695 5700 5706 5714
5808 5806 5804 5803 5802 5801 5799 5798 5797 5796 5795 5792 5790 5787 5785 5782 5779 5774 5772 5768 5765 5761 5756 5751 5746 5741 5735 5729 5721 5712 5704 5696 5689 5684 5681 5678 5676 5675 5676 5677 5679 5680 5683 5685 5689 5693 5699
5806 5805 5804 5802 5801 5799 5798 5796 5795 5793 5791 5790 5788 5785 5783 5780 5776 5773 5769 5764 5761 5757 5752 5747 5742 5737 5730 5724 5713 5705 5698 5689 5683 5677 5674 5671 5669 5669 5668 5669 5672 5673 5675 5676 5679 5682 5686
5804 5804 5803 5802 5800 5798 5797 5795 5793 5791 5789 5787 5785 5782 5779 5776 5774 5770 5766 5761 5756 5753 5748 5743 5738 5732 5725 5717 5709 5701 5693 5686 5677 5673 5669 5666 5665 5662 5662 5663 5664 5665 5667 5669 5668 5671 5678
5802 5802 5801 5800 5799 5797 5795 5793 5792 5790 5787 5785 5783 5780 5776 5773 5770 5767 5763 5758 5753 5749 5744 5739 5733 5728 5721 5712 5704 5696 5688 5680 5672 5668 5664 5662 5661 5659 5658 5657 5657 5658 5660 5659 5661 5662 5665
5798 5799 5798 5797 5796 5795 5793 5792 5790 5788 5786 5784 5781 5778 5774 5770 5767 5763 5759 5755 5750 5745 5741 5735 5729 5725 5717 5709 5699 5690 5682 5674 5667 5663 5661 5658 5657 5656 5653 5652 5652 5652 5652 5652 5653 5654 5656
5793 5793 5794 5794 5793 5792 5790 5789 5788 5786 5784 5782 5779 5776 5772 5768 5763 5759 5756 5753 5749 5744 5737 5732 5726 5720 5713 5705 5695 5687 5678 5669 5663 5659 5657 5656 5654 5652 5649 5646 5645 5645 5645 5645 5646 5647 5649
5787 5787 5788 5789 5789 5788 5787 5785 5784 5783 5781 5779 5777 5774 5771 5767 5762 5757 5753 5749 5744 5740 5734 5728 5723 5716 5709 5701 5692 5683 5674 5667 5661 5656 5654 5653 5650 5646 5643 5640 5638 5637 5637 5638 5641 5642 5644
5781 5781 5780 5781 5783 5783 5782 5781 5780 5778 5777 5776 5773 5770 5768 5764 5761 5756 5751 5746 5742 5736 5731 5725 5719 5714 5708 5700 5689 5681 5672 5664 5659 5653 5651 5649 5645 5641 5637 5634 5632 5630 5630 5631 5633 5636 5638
5774 5774 5774 5773 5774 5776 5776 5775 5774 5773 5773 5771 5769 5767 5764 5762 5759 5753 5748 5743 5739 5733 5728 5723 5717 5712 5705 5697 5690 5680 5670 5664 5657 5651 5648 5646 5640 5636 5633 5631 5626 5624 5625 5625 5627 5630 5635
5768 5768 5767 5767 5767 5767 5768 5768 5768 5767 5767 5766 5765 5763 5760 5758 5755 5751 5747 5740 5736 5731 5726 5721 5714 5709 5702 5696 5688 5681 5671 5663 5656 5650 5647 5644 5639 5634 5631 5628 5624 5623 5621 5622 5624 5628 5630
5761 5760 5761 5761 5760 5760 5761 5761 5760 5760 5760 5759 5759 5758 5757 5754 5751 5748 5744 5739 5734 5730 5722 5718 5712 5707 5701 5694 5687 5680 5672 5664 5657 5651 5645 5642 5638 5633 5630 5625 5621 5619 5619 5619 5621 5626 5628
5751 5752 5752 5754 5754 5754 5754 5754 5754 5754 5753 5753 5753 5751 5751 5750 5748 5744 5741 5737 5733 5727 5722 5717 5710 5704 5699 5693 5687 5679 5672 5665 5658 5650 5645 5641 5637 5632 5629 5623 5621 5617 5619 5620 5622 5624 5628
5738 5741 5743 5744 5746 5747 5747 5748 5748 5748 5747 5747 5746 5745 5745 5744 5743 5740 5738 5735 5730 5725 5720 5714 5709 5703 5697 5692 5687 5680 5672 5665 5659 5651 5645 5640 5637 5632 5629 5626 5622 5620 5621 5621 5624 5625 5627
5725 5729 5732 5733 5736 5738 5740 5741 5741 5742 5742 5742 5741 5741 5739 5738 5737 5736 5734 5731 5727 5723 5719 5713 5708 5703 5697 5692 5685 5679 5673 5665 5659 5652 5645 5639 5636 5632 5629 5627 5626 5623 5624 5625 5626 5626 5626
5712 5716 5719 5723 5725 5728 5730 5732 5734 5734 5735 5736 5735 5735 5735 5733 5732 5731 5730 5727 5723 5720 5716 5711 5706 5701 5696 5690 5685 5680 5673 5666 5660 5654 5648 5643 5637 5633 5630 5627 5626 5625 5625 5626 5625 5625 5625
5696 5702 5705 5711 5714 5717 5720 5722 5725 5726 5727 5728 5728 5728 5730 5728 5727 5727 5726 5724 5721 5717 5714 5711 5706 5701 5696 5691 5685 5680 5675 5669 5661 5656 5651 5645 5640 5635 5630 5627 5626 5625 5624 5624 5624 5624 5623
5683 5686 5691 5698 5703 5705 5709 5711 5714 5717 5718 5719 5720 5721 5723 5723 5723 5722 5721 5719 5718 5714 5711 5708 5705 5700 5695 5691 5685 5680 5676 5669 5664 5658 5652 5647 5642 5636 5631 5628 5626 5625 5623 5622 5621 5622 5621
5671 5673 5679 5684 5690 5694 5697 5700 5703 5706 5708 5710 5711 5712 5715 5717 5717 5716 5715 5714 5713 5711 5708 5706 5702 5699 5694 5690 5686 5680 5677 5671 5665 5660 5654 5650 5646 5641 5636 5633 5629 5626 5623 5619 5618 5617 5617
5660 5663 5668 5673 5677 5682 5686 5689 5692 5695 5698 5699 5701 5702 5707 5708 5710 5710 5708 5709 5708 5706 5704 5702 5700 5697 5694 5689 5685 5680 5676 5672 5666 5662 5656 5651 5647 5643 5639 5635 5631 5625 5622 5619 5617 5615 5615
5653 5655 5657 5661 5665 5668 5673 5677 5681 5684 5686 5688 5690 5692 5694 5700 5702 5702 5701 5702 5703 5700 5700 5699 5698 5694 5692 5689 5685 5680 5677 5672 5668 5663 5658 5653 5649 5645 5640 5636 5631 5627 5624 5621 5617 5615 5613
5644 5646 5649 5652 5654 5658 5662 5664 5667 5671 5673 5676 5678 5683 5684 5688 5692 5693 5694 5698 5697 5694 5694 5695 5693 5691 5689 5687 5683 5680 5677 5673 5669 5664 5659 5655 5650 5647 5643 5638 5634 5630 5625 5621 5617 5615 5615
5636 5636 5638 5641 5644 5646 5649 5651 5655 5658 5660 5662 5668 5670 5672 5677 5678 5683 5686 5689 5689 5687 5688 5688 5688 5688 5686 5684 5682 5678 5676 5673 5670 5665 5661 5656 5652 5648 5644 5640 5636 5633 5628 5623 5621 5620 5619
5624 5625 5627 5630 5632 5634 5637 5640 5642 5643 5644 5649 5654 5657 5658 5663 5666 5670 5675 5679 5680 5680 5679 5682 5681 5682 5682 5680 5679 5677 5674 5672 5669 5666 5662 5658 5654 5650 5647 5643 5640 5636 5632 5629 5626 5625 5625
5611 5612 5615 5617 5619 5621 5623 5625 5628 5630 5632 5635 5639 5642 5644 5649 5653 5658 5662 5667 5669 5670 5671 5672 5675 5676 5676 5675 5674 5674 5672 5670 5668 5666 5663 5659 5656 5652 5649 5645 5643 5640 5638 5635 5633 5632 5632
5595 5596 5599 5600 5602 5605 5608 5611 5612 5614 5616 5619 5625 5627 5628 5632 5643 5645 5649 5655 5658 5660 5662 5666 5667 5668 5669 5669 5668 5668 5668 5667 5666 5664 5662 5659 5656 5654 5650 5648 5646 5644 5642 5640 5638 5638 5637
5578 5580 5581 5583 5585 5587 5589 5591 5594 5595 5597 5600 5608 5608 5609 5615 5628 5629 5635 5640 5646 5648 5651 5656 5658 5659 5661 5663 5663 5663 5663 5663 5662 5662 5660 5658 5656 5654 5651 5649 5648 5646 5645 5643 5643 5644 5640
5559 5560 5562 5564 5565 5566 5569 5570 5572 5573 5574 5576 5587 5588 5590 5599 5608 5614 5620 5626 5631 5636 5639 5645 5647 5649 5654 5655 5656 5656 5656 5657 5657 5658 5657 5656 5654 5653 5652 5650 5650 5648 5647 5646 5645 5643 5643
5538 5539 5539 5540 5541 5543 5545 5545 5548 5549 5549 5547 5564 5568 5569 5570 5588 5596 5602 5609 5617 5621 5626 5631 5636 5641 5643 5646 5649 5649 5649 5650 5651 5652 5652 5652 5652 5651 5651 5650 5649 5648 5647 5646 5645 5645 5644